User: anonymous   Login
Location: Unspecified
(0.0000°N, 0.0000°E)
Time: 06:25:03
(UTC+00:00)
Language:

ELEKTRO-L - Orbit

View from above orbital plane
View from above orbital plane
View from above satellite
View from above satellite

Ground track
Ground track

The orbit data is extracted from the following two-line orbital elements,

1 37344U 11001A   14355.05892906 -.00000087  00000-0  00000+0 0  1730
2 37344 000.6105 080.8799 0000469 204.4060 261.3318 01.00273788 14398
Epoch (UTC): 21 December 2014 01:24:51
Eccentricity: 0.0000469
inclination: 0.6105°
perigee height: 35783 km
apogee height: 35787 km
right ascension of ascending node: 80.8799°
argument of perigee: 204.4060°
revolutions per day: 1.00273788
mean anomaly at epoch: 261.3318°
orbit number at epoch: 1439

The dashed part of the orbit path shows where the satellite is in the earth's shadow,  

DLR